SCP
0 0 0 0 0 0 0 0 0 0 0 0 0 0 0 0 0 0 0 0 0 0
0 0 0 0 0 0 0 0 0 0 0 0 0 0 0 0 0 0 0 0 0 0
0 0 0 0 0 0 0 0 0 0 0 0 0 0 0 0 0 0 0 0 0 0
0 0 0 0 0 0 0 0 0 0 0 0 0 0 0 0 0 0 0 0 0 0
0 0 0 0 0 0 0 0 0 0 0 0 0 0 0 0 0 0 0 0 0 0
0 0 0 0 0 0 0 0 0 0 0 0 0 0 0 0 0 0 0 0 0 0
0 0 0 0 0 0 0 0 0 0 0 0 0 0 0 0 0 0 0 0 0 0
0 0 0 0 0 0 0 0 0 0 0 0 0 0 0 0 0 0 0 0 0 0
0 0 0 0 0 0 0 0 0 0 0 0 0 0 0 0 0 0 0 0 0 0
0 0 0 0 0 0 0 0 0 0 0 0 0 0 0 0 0 0 0 0 0 0
0 0 0 0 0 0 0 0 0 0 0 0 0 0 0 0 0 0 0 0 0 0
0 0 0 0 0 0 0 0 0 0 0 0 0 0 0 0 0 0 0 0 0 0
0 0 0 0 0 0 0 0 0 0 0 0 0 0 0 0 0 0 0 0 0 0
0 0 0 0 0 0 0 0 0 0 0 0 0 0 0 0 0 0 0 0 0 0
Wind_Speed_500mb
31 28 25 28 27 27 24 22 23 26 28 29 30 30 29 28 27 28 28 30 32 33
31 30 27 29 28 25 25 24 26 28 29 30 29 28 27 27 27 28 28 29 31 34
32 27 27 26 25 21 25 26 28 30 30 30 28 28 28 28 30 30 31 31 31 33
28 25 24 24 21 24 25 29 30 30 30 30 29 29 30 31 31 31 32 33 33 33
25 22 25 22 21 24 26 30 31 28 29 31 30 31 31 32 32 33 33 34 34 33
21 21 21 21 23 25 27 29 28 29 31 31 32 33 34 35 35 35 35 35 36 35
18 17 18 22 23 24 27 28 29 31 32 33 35 35 35 35 34 34 34 34 35 35
14 16 20 23 24 27 29 30 33 33 34 35 34 33 33 32 32 32 31 31 33 32
17 20 22 25 28 30 31 32 33 35 34 33 32 30 30 30 29 28 29 28 28 30
21 25 27 29 31 31 32 34 35 36 34 32 29 28 27 27 28 29 31 35 39 42
27 29 31 33 34 35 35 37 37 35 32 28 27 26 26 30 35 39 40 42 46 50
34 36 37 37 37 37 37 35 34 32 30 30 27 29 32 38 43 48 51 51 53 54
40 38 37 37 37 36 35 34 33 32 31 32 33 35 40 44 51 57 58 58 56 52
35 35 35 36 35 34 33 34 34 35 35 39 43 45 46 47 51 55 59 59 58 54
Wind_Direction_500mb
238 245 244 245 244 246 252 262 277 286 292 297 299 300 299 299 298 295 292 288 288 287
238 240 244 246 245 251 261 271 280 287 291 293 295 297 298 299 300 300 297 293 289 288
234 239 247 248 250 255 267 273 277 282 290 293 293 293 295 298 300 301 299 296 292 289
237 241 245 244 247 255 264 275 281 286 286 287 290 295 297 298 298 297 296 295 293 292
226 228 232 242 253 264 268 273 277 283 287 289 293 295 295 295 296 297 296 295 296 296
215 222 238 249 254 264 272 276 281 285 283 288 292 294 294 294 294 294 295 295 295 295
220 236 252 262 267 273 275 278 283 283 287 294 295 295 295 295 296 297 298 299 299 299
238 257 263 266 270 269 272 276 278 284 291 292 293 292 293 295 298 300 301 302 302 304
257 263 267 266 265 266 269 276 284 291 292 291 291 293 295 297 299 300 303 305 305 305
259 259 259 259 262 268 277 286 291 291 289 290 291 291 291 292 296 299 302 303 302 300
267 265 264 264 268 275 281 286 287 286 286 287 288 288 291 295 297 297 300 302 302 303
265 266 265 267 271 273 277 281 281 282 284 286 287 288 291 294 297 299 301 301 301 303
263 264 266 269 270 274 278 279 279 281 286 288 290 292 295 298 299 299 300 299 300 302
265 267 268 268 270 275 277 279 283 287 289 292 296 297 298 299 296 297 298 301 306 309
Wind_Speed_850mb
31 28 25 28 27 27 24 22 23 26 28 29 30 30 29 28 27 28 28 30 32 33
31 30 27 29 28 25 25 24 26 28 29 30 29 28 27 27 27 28 28 29 31 34
32 27 27 26 25 21 25 26 28 30 30 30 28 28 28 28 30 30 31 31 31 33
28 25 24 24 21 24 25 29 30 30 30 30 29 29 30 31 31 31 32 33 33 33
25 22 25 22 21 24 26 30 31 28 29 31 30 31 31 32 32 33 33 34 34 33
21 21 21 21 23 25 27 29 28 29 31 31 32 33 34 35 35 35 35 35 36 35
18 17 18 22 23 24 27 28 29 31 32 33 35 35 35 35 34 34 34 34 35 35
14 16 20 23 24 27 29 30 33 33 34 35 34 33 33 32 32 32 31 31 33 32
17 20 22 25 28 30 31 32 33 35 34 33 32 30 30 30 29 28 29 28 28 30
21 25 27 29 31 31 32 34 35 36 34 32 29 28 27 27 28 29 31 35 39 42
27 29 31 33 34 35 35 37 37 35 32 28 27 26 26 30 35 39 40 42 46 50
34 36 37 37 37 37 37 35 34 32 30 30 27 29 32 38 43 48 51 51 53 54
40 38 37 37 37 36 35 34 33 32 31 32 33 35 40 44 51 57 58 58 56 52
35 35 35 36 35 34 33 34 34 35 35 39 43 45 46 47 51 55 59 59 58 54
Wind_Direction_850mb
238 245 244 245 244 246 252 262 277 286 292 297 299 300 299 299 298 295 292 288 288 287
238 240 244 246 245 251 261 271 280 287 291 293 295 297 298 299 300 300 297 293 289 288
234 239 247 248 250 255 267 273 277 282 290 293 293 293 295 298 300 301 299 296 292 289
237 241 245 244 247 255 264 275 281 286 286 287 290 295 297 298 298 297 296 295 293 292
226 228 232 242 253 264 268 273 277 283 287 289 293 295 295 295 296 297 296 295 296 296
215 222 238 249 254 264 272 276 281 285 283 288 292 294 294 294 294 294 295 295 295 295
220 236 252 262 267 273 275 278 283 283 287 294 295 295 295 295 296 297 298 299 299 299
238 257 263 266 270 269 272 276 278 284 291 292 293 292 293 295 298 300 301 302 302 304
257 263 267 266 265 266 269 276 284 291 292 291 291 293 295 297 299 300 303 305 305 305
259 259 259 259 262 268 277 286 291 291 289 290 291 291 291 292 296 299 302 303 302 300
267 265 264 264 268 275 281 286 287 286 286 287 288 288 291 295 297 297 300 302 302 303
265 266 265 267 271 273 277 281 281 282 284 286 287 288 291 294 297 299 301 301 301 303
263 264 266 269 270 274 278 279 279 281 286 288 290 292 295 298 299 299 300 299 300 302
265 267 268 268 270 275 277 279 283 287 289 292 296 297 298 299 296 297 298 301 306 309